Location: ??????
(30.5519°N, 47.7720°E)
Time: 18:09:14
(UTC+00:00)

Cosmos 1455 - Visible Passes

Search period start: 14 May 2021 00:00
Search period end: 24 May 2021 00:00
Orbit: 498 x 521 km, 82.5° (Epoch: 13 May)

Date Brightness Start Highest point End Pass type
(mag) Time Alt. Az. Time Alt. Az. Time Alt. Az.
14 May 3.1 01:19:32 10° NNW 01:22:52 28° W 01:26:11 10° SSW visible
15 May 2.7 01:02:21 10° NNW 01:05:56 38° W 01:09:30 10° SSW visible
16 May 2.3 00:45:15 10° NNW 00:48:59 51° W 00:52:44 10° S visible
17 May 2.1 00:28:12 10° N 00:32:02 72° W 00:35:05 15° S visible
18 May 2.2 00:11:12 10° N 00:15:04 83° E 00:17:16 25° S visible
18 May 2.6 23:54:17 10° N 23:58:06 60° E 23:59:34 34° SSE visible
19 May 3.2 23:37:24 10° N 23:41:06 43° E 23:41:58 37° ESE visible
20 May 3.7 23:20:36 10° NNE 23:24:05 32° E 23:24:28 32° E visible
21 May 4.3 00:58:23 10° WNW 00:59:16 11° W 00:59:18 11° W visible
21 May 4.2 23:03:53 10° NNE 23:07:01 24° ENE 23:07:01 24° ENE visible
22 May 4.2 00:40:15 10° NW 00:41:52 14° W 00:41:52 14° W visible
22 May 4.7 22:47:16 10° NNE 22:49:39 18° ENE 22:49:39 18° ENE visible
23 May 4.0 00:22:42 10° NW 00:24:29 17° WNW 00:24:29 17° WNW visible
23 May 5.1 22:30:50 10° NE 22:32:19 14° ENE 22:32:19 14° ENE visible
